SCP
2 2 3 3 3 3 2 3 3 3 3 3 4 4 5 5 5 4 3 2 1 1 1 1 0 0 0 0 0 0 1 1 0 0 0 0 0 0 0 0 0 0 0
2 3 3 3 3 3 3 3 3 3 3 3 4 4 5 5 5 4 3 2 1 1 1 1 1 1 1 1 1 1 1 1 0 0 0 0 0 0 0 0 0 0 0
3 3 3 3 3 3 2 2 2 2 2 3 3 4 4 4 4 4 3 2 2 2 2 1 1 1 1 1 1 1 1 1 1 1 0 0 0 0 0 0 0 0 0
3 3 3 3 3 2 2 2 2 2 2 2 3 3 3 3 3 3 3 2 2 2 2 2 1 1 1 1 1 1 1 1 1 1 1 1 1 1 0 0 0 0 0
3 3 3 3 2 2 1 1 1 1 1 1 2 2 2 2 2 2 2 3 3 2 2 2 1 1 1 1 1 1 1 1 1 1 1 1 1 1 1 0 0 0 0
2 2 2 2 2 1 1 1 1 1 1 1 1 1 1 1 1 2 2 3 3 2 2 2 2 2 2 1 1 1 1 1 1 1 1 1 1 1 1 0 0 0 0
2 2 2 2 2 2 1 1 1 1 1 1 1 1 1 1 1 1 2 2 2 2 2 2 2 2 2 2 1 1 1 1 1 1 1 1 1 1 1 0 0 0 0
2 2 2 3 3 2 2 1 1 1 1 1 1 1 1 1 1 1 1 1 1 1 2 2 2 2 2 1 1 1 1 1 1 1 1 1 1 1 1 1 1 1 1
1 2 2 2 2 2 1 1 1 1 1 1 1 1 1 1 1 1 1 1 1 1 1 1 1 1 1 1 1 1 1 1 1 1 1 1 1 1 1 1 1 1 1
1 1 1 2 2 1 1 1 1 1 1 0 0 0 0 0 0 0 0 0 0 0 1 1 1 1 1 1 1 1 1 1 1 1 1 1 1 1 1 1 1 1 1
0 0 1 1 1 1 0 0 0 0 0 0 0 0 0 0 0 0 0 0 0 0 0 1 0 0 0 1 1 1 1 1 1 1 1 1 1 1 1 1 1 1 1
0 0 0 0 0 0 0 0 0 0 0 0 0 0 0 0 0 0 0 0 0 0 0 0 0 0 0 0 0 0 1 1 1 1 1 1 1 1 1 1 1 1 1
0 0 0 0 0 0 0 0 0 0 0 0 0 0 0 0 0 0 0 0 0 0 0 0 0 0 0 0 0 0 0 0 1 1 1 1 1 1 1 1 1 1 1
0 0 0 0 0 0 0 0 0 0 0 0 0 0 0 0 0 0 0 0 0 0 0 0 0 0 0 0 0 0 0 0 0 0 0 1 1 1 1 1 1 1 1
0 0 0 0 0 0 0 0 0 0 0 0 0 0 0 0 0 0 0 0 0 0 0 0 0 0 0 0 0 0 0 0 0 0 0 0 0 0 1 1 1 1 1
0 0 0 0 0 0 0 0 0 0 0 0 0 0 0 0 0 0 0 0 0 0 0 0 0 0 0 0 0 0 0 0 0 0 0 0 0 0 0 0 0 1 1
0 0 0 0 0 0 0 0 0 0 0 0 0 0 0 0 0 0 0 0 0 0 0 0 0 0 0 0 0 0 0 0 0 0 0 0 0 0 0 0 0 0 0
0 0 0 0 0 0 0 0 0 0 0 0 0 0 0 0 0 0 0 0 0 0 0 0 0 0 0 0 0 0 0 0 0 0 0 0 0 0 0 0 0 0 0
0 0 0 0 0 0 0 0 0 0 0 0 0 0 0 0 0 0 0 0 0 0 0 0 0 0 0 0 0 0 0 0 0 0 0 0 0 0 0 0 0 0 0
0 0 0 0 0 0 0 0 0 0 0 0 0 0 0 0 0 0 0 0 0 0 0 0 0 0 0 0 0 0 0 0 0 0 0 0 0 0 0 0 0 0 0
0 0 0 0 0 0 0 0 0 0 0 0 0 0 0 0 0 0 0 0 0 0 0 0 0 0 0 0 0 0 0 0 0 0 0 0 0 0 0 0 0 0 0
0 0 0 0 0 0 0 0 0 0 0 0 0 0 0 0 0 0 0 0 0 0 0 0 0 0 0 0 0 0 0 0 0 0 0 0 0 0 0 0 0 0 0
0 0 0 0 0 0 0 0 0 0 0 0 0 0 0 0 0 0 0 0 0 0 0 0 0 0 0 0 0 0 0 0 0 0 0 0 0 0 0 0 0 0 0
0 0 0 0 0 0 0 0 0 0 0 0 0 0 0 0 0 0 0 0 0 0 0 0 0 0 0 0 0 0 0 0 0 0 0 0 0 0 0 0 0 0 0
0 0 0 0 0 0 0 0 0 0 0 0 0 0 0 0 0 0 0 0 0 0 0 0 0 0 0 0 0 0 0 0 0 0 0 0 0 0 0 0 0 0 0
0 0 0 0 0 0 0 0 0 0 0 0 0 0 0 0 0 0 0 0 0 0 0 0 0 0 0 0 0 0 0 0 0 0 0 0 0 0 0 0 0 0 0
Wind_Speed
5 5 5 6 8 9 10 10 10 9 7 6 6 6 6 4 4 5 11 13 14 13 9 9 7 8 7 7 7 5 5 5 5 6 5 4 4 2 3 3 3 4 4
7 7 6 6 7 7 6 6 6 6 8 7 7 7 6 6 8 10 12 14 15 14 11 11 9 9 7 8 7 5 5 5 5 6 7 5 3 5 3 2 2 3 3
5 6 6 7 7 5 4 1 1 3 5 7 6 5 6 7 9 12 12 15 16 15 12 12 11 9 9 7 7 7 8 6 5 5 6 5 3 4 3 2 2 2 4
7 7 7 7 5 4 2 3 3 4 5 6 6 7 8 10 14 13 13 14 15 13 12 12 11 10 8 8 9 9 6 6 6 5 6 7 5 6 4 4 4 4 5
8 8 8 7 6 4 3 2 2 3 4 4 5 7 9 10 11 13 14 13 10 10 10 10 8 8 8 8 8 7 7 6 6 6 6 6 5 8 8 7 5 4 3
9 8 8 7 6 6 5 5 6 5 4 4 5 7 10 12 14 15 12 8 4 2 4 7 6 7 7 7 7 7 8 6 6 6 6 6 6 6 7 8 8 6 3
9 10 10 9 7 5 1 3 4 5 4 5 5 6 9 9 7 7 6 5 3 2 2 4 4 5 6 7 7 7 8 7 7 7 7 7 7 7 8 8 9 8 5
10 11 11 11 10 10 9 6 4 4 4 5 7 7 8 4 2 1 3 5 4 3 2 3 3 3 4 5 5 5 7 6 7 9 9 7 8 8 8 8 8 7 7
10 11 12 12 11 10 10 9 8 7 8 7 7 6 7 5 4 5 6 5 4 2 2 3 3 3 2 2 3 4 6 6 8 9 9 9 8 7 7 6 6 6 6
8 9 10 11 10 9 9 10 9 8 8 8 6 3 5 6 7 7 7 6 4 3 3 4 5 4 3 3 4 4 4 5 7 6 8 8 8 7 7 6 6 6 6
6 7 7 8 8 8 8 7 7 6 5 6 5 5 4 5 6 6 6 5 4 4 3 2 4 4 4 4 4 5 4 6 7 7 8 8 9 8 7 7 7 7 7
5 6 6 6 5 6 6 6 6 6 5 4 3 4 5 5 6 6 5 5 4 3 2 1 3 4 4 4 5 5 5 6 6 6 6 8 7 8 7 7 8 7 8
4 5 4 4 4 4 4 4 4 5 5 5 3 3 5 5 6 6 5 5 4 3 2 2 3 4 4 5 5 5 5 5 5 5 6 7 7 7 5 6 6 6 6
3 3 3 3 3 3 3 4 3 3 3 4 3 3 3 4 5 5 5 4 4 4 4 4 4 5 4 4 3 4 4 3 3 4 5 6 6 6 5 4 5 5 5
2 1 1 2 2 3 2 3 4 3 2 2 3 3 3 3 5 5 5 4 4 5 5 4 4 4 4 6 7 2 2 2 2 3 4 6 8 10 8 5 5 4 2
3 1 1 1 1 2 2 2 3 4 4 4 4 3 2 3 4 5 5 4 4 5 5 6 6 7 8 9 10 8 3 4 4 5 4 4 5 7 9 11 12 11 6
2 2 4 4 2 1 0 2 3 3 3 3 3 3 3 4 4 4 4 4 4 4 5 6 6 7 7 7 7 9 5 6 6 6 5 5 4 3 3 4 6 9 10
1 2 4 3 2 2 2 3 4 3 2 2 3 4 5 6 5 4 4 3 3 4 5 6 6 6 6 4 4 3 6 8 8 8 8 7 8 10 9 6 8 10 10
1 3 4 3 1 3 3 3 3 3 2 2 3 3 4 4 3 4 4 3 3 5 4 5 6 7 6 3 5 6 7 8 10 10 10 10 10 13 14 8 9 9 7
2 2 3 3 1 1 1 1 1 1 2 3 3 3 2 2 2 1 1 1 2 3 3 4 6 7 7 3 4 7 5 7 7 7 8 11 11 11 13 10 9 8 7
1 1 1 3 2 2 2 1 3 4 5 5 4 4 3 2 2 3 3 2 0 3 4 3 3 5 6 5 4 5 4 5 5 6 7 8 10 9 9 7 7 4 6
3 2 3 4 2 2 2 3 4 5 5 4 4 4 5 4 4 3 3 3 2 3 4 4 4 2 4 6 4 4 4 4 4 4 5 6 7 6 6 5 5 4 6
3 3 5 5 4 4 4 5 5 5 5 4 4 4 5 6 7 7 6 5 5 5 4 4 4 5 5 5 4 3 4 5 4 5 6 6 6 5 1 2 4 5 4
4 5 5 5 5 5 4 4 5 6 6 5 3 3 3 4 6 6 6 6 6 6 6 6 6 6 6 7 7 5 4 4 4 4 3 3 5 6 4 4 3 4 4
5 4 4 5 5 5 6 5 5 4 4 4 4 4 4 3 3 4 4 5 4 4 3 3 3 4 4 5 7 6 5 5 5 6 3 2 4 5 5 5 5 5 4
6 5 5 5 6 6 7 6 3 1 1 0 2 3 4 4 4 5 5 4 3 3 3 2 1 1 2 4 5 5 3 2 3 4 3 2 3 4 5 6 6 5 5
Wind_Direction
155 162 166 166 164 177 188 198 207 205 211 217 220 217 217 207 208 251 275 274 265 257 251 258 254 253 251 251 252 245 252 256 273 274 263 250 232 238 266 268 304 323 327
160 156 151 145 147 157 171 190 206 216 226 232 232 229 222 219 218 214 227 243 251 246 237 239 248 246 253 253 258 253 260 261 253 280 290 279 221 186 221 238 252 304 310
100 117 124 117 119 132 148 139 339 302 290 287 268 254 239 238 228 226 224 227 232 233 232 234 242 250 252 254 252 250 249 255 261 264 284 293 306 318 209 194 235 263 294
67 83 98 98 97 97 84 62 24 342 327 311 289 269 251 244 240 234 229 228 230 232 232 235 237 247 255 255 252 244 241 244 249 248 253 268 302 292 282 228 196 210 248
64 66 82 104 118 135 135 143 218 266 291 297 291 288 273 263 257 247 233 228 230 235 240 242 242 244 248 248 251 260 246 235 239 245 250 243 235 246 269 278 280 264 271
78 76 83 99 119 145 169 203 230 251 275 289 289 286 286 282 265 245 226 213 205 220 258 262 252 247 243 243 247 254 248 242 243 249 255 254 254 253 257 265 264 269 280
69 64 57 51 47 43 33 255 269 286 289 296 315 315 302 294 282 243 197 149 112 63 351 304 275 253 243 244 241 241 253 243 237 243 253 258 263 269 270 270 275 281 277
59 55 51 45 37 30 20 10 359 334 316 316 335 341 327 316 321 39 90 90 82 59 337 298 284 259 245 246 233 232 235 239 244 255 264 269 263 261 259 264 276 283 283
56 51 47 44 39 33 29 26 30 24 13 5 7 358 350 8 37 59 66 69 69 58 350 332 330 311 290 284 265 242 245 245 245 251 245 250 261 256 260 262 265 266 276
53 45 42 41 39 39 47 53 52 42 23 11 9 3 9 23 35 48 59 71 77 62 21 353 332 325 322 302 287 268 255 265 262 267 277 269 267 266 259 253 251 251 258
49 41 36 35 37 37 40 47 53 48 26 11 2 15 35 56 61 56 52 58 62 61 47 347 312 308 306 305 295 287 285 274 277 274 272 272 272 263 255 247 245 244 243
43 38 33 28 31 29 30 31 30 33 25 18 30 48 52 65 83 88 85 85 81 77 67 307 292 296 303 308 301 289 287 288 289 293 294 288 282 268 254 245 243 243 240
17 24 34 31 25 14 9 15 21 16 7 358 8 65 79 78 74 73 70 72 78 76 60 19 355 342 330 313 298 290 292 305 317 319 312 306 296 280 268 260 257 253 252
347 7 15 20 13 6 352 346 8 12 358 345 356 38 75 88 90 81 72 65 55 46 42 34 18 0 345 333 307 280 280 306 342 358 350 347 345 336 308 285 284 272 260
280 303 321 335 344 6 5 355 357 12 16 27 36 35 51 87 91 83 78 72 58 51 40 37 37 25 16 14 357 9 51 26 43 57 39 36 38 38 25 14 353 325 281
254 280 322 319 332 352 12 36 49 38 45 61 57 46 77 111 109 102 99 93 81 70 58 45 41 39 36 18 6 347 71 55 48 57 61 57 48 55 58 57 49 34 21
241 344 351 343 320 309 353 98 97 99 79 62 49 39 45 74 86 91 91 92 101 95 69 56 53 55 51 32 25 8 43 61 52 49 56 61 46 28 76 107 106 68 47
209 22 360 360 316 262 199 158 166 173 156 97 59 49 52 58 57 61 72 84 95 83 68 64 69 78 75 43 21 354 70 66 60 55 55 62 52 23 1 52 64 63 52
283 347 358 11 291 235 207 195 191 185 158 114 87 69 76 86 72 54 39 26 44 61 65 71 76 89 95 52 352 329 91 81 71 61 47 39 45 15 354 40 66 70 77
244 315 7 50 119 138 303 256 191 140 100 85 79 71 81 120 139 138 24 346 11 35 30 64 76 87 94 89 1 331 82 83 88 88 85 59 30 15 7 22 41 51 43
209 251 89 103 79 45 19 19 52 65 67 64 65 54 51 91 157 195 203 221 251 35 8 6 57 85 90 98 58 14 54 69 63 55 51 48 20 15 15 9 33 19 325
194 185 135 115 99 95 111 94 72 68 71 70 60 34 13 12 44 89 138 131 85 48 4 350 346 9 79 59 57 39 41 23 67 51 40 38 11 4 18 24 12 323 303
186 165 151 147 151 157 151 117 97 94 94 89 69 35 21 30 37 44 56 75 67 49 23 4 354 355 15 66 73 44 39 22 32 50 44 12 350 319 300 52 322 312 344
175 173 171 162 141 146 148 125 124 130 126 117 105 79 54 47 47 44 41 48 50 49 38 27 15 10 19 25 24 29 31 19 22 29 38 347 315 301 301 306 307 336 9
160 173 169 151 135 139 149 156 154 146 136 147 157 156 156 147 116 93 74 71 70 78 81 54 26 15 10 4 357 358 15 12 4 340 350 354 325 320 330 333 336 327 323
159 166 161 151 148 152 153 158 165 174 320 27 128 150 161 161 156 141 134 111 89 118 147 163 202 234 267 305 315 321 324 317 309 309 323 321 317 324 326 325 323 316 314